DW1024 Weather Reports


Display with metric or nautical units.
time (UTC)temp
F
wind
direction
speed
MPH
gust
MPH
rain 1hr
in
rain 24hr
in
rain mn
in
humidity
%
barometer
mb
20260505114835 76 88 2.0 9.0 0.00 0.00 0.00 40 1006.9
20260505113336 78 282 1.0 7.0 0.00 0.00 0.00 38 1007.0
20260505111835 78 260 2.0 4.0 0.00 0.00 0.00 35 1007.1
20260505110337 77 53 2.0 6.0 0.00 0.00 0.00 37 1007.3
20260505101835 74 69 1.0 6.0 0.00 0.00 0.00 42 1008.0
20260505093336 73 271 1.0 4.0 0.00 0.00 0.00 47 1008.6
20260505091835 73 186 1.0 4.0 0.00 0.00 0.00 46 1008.8
20260505090336 73 245 2.0 5.0 0.00 0.00 0.00 46 1008.8
20260505084833 72 36 2.0 5.0 0.00 0.00 0.00 49 1009.0
20260505083334 70 55 1.0 4.0 0.00 0.00 0.00 56 1009.2
20260505081833 70 294 1.0 3.0 0.00 0.00 0.00 60 1009.3
20260505080335 67 199 1.0 3.0 0.00 0.00 0.00 63 1009.6
20260505074835 66 227 1.0 4.0 0.00 0.00 0.00 67 1009.6
20260505073334 64 129 1.0 4.0 0.00 0.00 0.00 69 1009.7
20260505071834 63 250 1.0 4.0 0.00 0.00 0.00 71 1009.8
20260505070343 62 256 1.0 3.0 0.00 0.00 0.00 74 1009.9
20260505063449 58 295 1.0 2.0 0.00 0.00 0.00 80 1010.0
20260505061949 57 261 1.0 4.0 0.00 0.00 0.00 84 1010.1
20260505060451 55 219 1.0 3.0 0.00 0.00 0.00 85 1010.3
20260505054946 54 243 0.0 3.0 0.00 0.00 0.00 89 1010.3
20260505053448 51 175 1.0 3.0 0.00 0.00 0.00 92 1010.3
20260505051945 48 174 0.0 3.0 0.00 0.00 0.00 91 1010.4
20260505050446 47 285 0.0 0.0 0.00 0.00 0.00 89 1010.5
20260505040445 47 286 0.0 0.0 0.00 0.00 0.00 86 1010.4
20260505033446 48 285 0.0 0.0 0.00 0.00 0.00 86 1010.4
20260505031942 49 285 0.0 1.0 0.00 0.00 0.00 86 1010.6
20260505030445 49 286 0.0 1.0 0.00 0.00 0.00 84 1010.6
20260505024942 49 285 0.0 0.0 0.00 0.00 0.00 83 1010.7
20260505023444 49 285 0.0 0.0 0.00 0.00 0.00 82 1010.9
20260505014941 51 285 0.0 0.0 0.00 0.00 0.00 81 1011.2
20260505013442 52 285 0.0 0.0 0.00 0.00 0.00 81 1011.3
20260505011934 53 285 0.0 0.0 0.00 0.00 0.00 79 1011.3
20260505010435 54 286 0.0 0.0 0.00 0.00 0.00 79 1011.4
20260505004936 55 285 0.0 0.0 0.00 0.00 0.00 78 1011.5
20260505003436 55 285 0.0 1.0 0.00 0.00 0.00 78 1011.5
20260505001935 56 286 0.0 2.0 0.00 0.00 0.00 76 1011.6
20260505000437 57 178 0.0 0.0 0.00 0.00 0.00 75 1011.7
20260504234937 58 178 0.0 2.0 0.00 0.00 0.00 75 1011.6
20260504233436 58 178 0.0 1.0 0.00 0.00 0.00 75 1011.9
20260504231937 58 178 0.0 3.0 0.00 0.00 0.00 74 1011.9
20260504230435 59 267 1.0 3.0 0.00 0.00 0.00 73 1012.3
20260504224935 59 257 0.0 2.0 0.00 0.00 0.00 72 1012.4
20260504223435 60 257 0.0 1.0 0.00 0.00 0.00 70 1012.4
20260504221936 60 257 0.0 1.0 0.00 0.00 0.00 69 1012.4
20260504220438 61 257 0.0 2.0 0.00 0.00 0.00 69 1012.5
20260504214936 61 254 0.0 4.0 0.00 0.00 0.00 69 1012.9
20260504213433 62 203 1.0 7.0 0.00 0.00 0.00 68 1013.0
20260504211931 62 250 2.0 7.0 0.00 0.00 0.00 68 1013.1
20260504210433 62 268 3.0 11.0 0.00 0.00 0.00 67 1013.0
20260504204935 63 278 5.0 13.0 0.00 0.00 0.00 66 1013.4
20260504201930 64 229 5.0 11.0 0.00 0.00 0.00 62 1013.2
20260504200430 64 253 2.0 12.0 0.00 0.00 0.00 58 1013.1
20260504194933 65 240 0.0 2.0 0.00 0.00 0.00 55 1012.3
20260504193439 66 238 0.0 1.0 0.00 0.00 0.00 54 1012.2
20260504191945 67 235 0.0 2.0 0.00 0.00 0.00 53 1012.0
20260504190445 68 200 0.0 0.0 0.00 0.00 0.00 52 1012.0
20260504184946 69 200 0.0 0.0 0.00 0.00 0.00 50 1011.8
20260504183446 69 200 0.0 2.0 0.00 0.00 0.00 49 1011.8
20260504180431 70 41 0.0 2.0 0.00 0.00 0.00 48 1011.7
20260504174931 71 103 0.0 2.0 0.00 0.00 0.00 47 1011.7
20260504171930 71 169 1.0 3.0 0.00 0.00 0.00 46 1011.6
20260504170431 72 71 1.0 5.0 0.00 0.00 0.00 45 1011.6
20260504160430 74 46 2.0 8.0 0.00 0.00 0.00 43 1011.7
20260504140424 74 71 3.0 9.0 0.00 0.00 0.00 43 1012.2
20260504130422 74 51 4.0 9.0 0.00 0.00 0.00 43 1012.6